This is the latest recevied weather packets stored in our database for station/object KK7KHO. If no packets are shown the sender has not sent any weather packets the latest 10 day(s).
| Time | Temp. | Humidity | Pressure | Rain* | Wind** | Luminosity | Snow |
|---|---|---|---|---|---|---|---|
| 1777858069 | 24.44° C | 46% | 1008.8 hPa | 0 mm | - | 150 W/m² | - |
| 1777857768 | 24.44° C | 46% | 1008.9 hPa | 0 mm | - | 161 W/m² | - |
| 1777857464 | 24.44° C | 46% | 1008.8 hPa | 0 mm | - | 175 W/m² | - |
| 1777857161 | 25° C | 44% | 1008.9 hPa | 0 mm | - | 187 W/m² | - |
| 1777856857 | 24.44° C | 45% | 1009 hPa | 0 mm | - | 199 W/m² | - |
| 1777856553 | 24.44° C | 45% | 1008.9 hPa | 0 mm | - | 212 W/m² | - |
| 1777856250 | 25° C | 45% | 1009 hPa | 0 mm | - | 224 W/m² | - |
| 1777855947 | 25° C | 44% | 1009.2 hPa | 0 mm | - | 237 W/m² | - |
| 1777855645 | 25° C | 43% | 1009.3 hPa | 0 mm | - | 250 W/m² | - |
| 1777855341 | 25° C | 46% | 1009.3 hPa | 0 mm | - | 262 W/m² | - |
| 1777855038 | 25° C | 45% | 1009.3 hPa | 0 mm | - | 274 W/m² | - |
| 1777854735 | 25.56° C | 45% | 1009.3 hPa | 0 mm | - | 287 W/m² | - |
| 1777854432 | 25.56° C | 46% | 1009.3 hPa | 0 mm | - | 299 W/m² | - |
| 1777854129 | 25.56° C | 45% | 1009.3 hPa | 0 mm | - | 311 W/m² | - |
| 1777853827 | 25.56° C | 45% | 1009.5 hPa | 0 mm | - | 322 W/m² | - |
| 1777853523 | 25.56° C | 46% | 1009.5 hPa | 0 mm | - | 335 W/m² | - |
| 1777853220 | 25° C | 46% | 1009.4 hPa | 0 mm | - | 347 W/m² | - |
| 1777852917 | 25.56° C | 45% | 1009.5 hPa | 0 mm | - | 359 W/m² | - |
| 1777852615 | 25.56° C | 45% | 1009.6 hPa | 0 mm | - | 372 W/m² | - |
| 1777852312 | 25.56° C | 45% | 1009.6 hPa | 0 mm | - | 383 W/m² | - |
| 1777852010 | 25° C | 47% | 1009.6 hPa | 0 mm | - | 395 W/m² | - |
| 1777851708 | 25.56° C | 45% | 1009.8 hPa | 0 mm | - | 408 W/m² | - |
| 1777851404 | 25.56° C | 46% | 1009.6 hPa | 0 mm | - | 417 W/m² | - |
| 1777851100 | 25.56° C | 47% | 1009.7 hPa | 0 mm | - | 425 W/m² | - |
| 1777850797 | 25.56° C | 47% | 1009.7 hPa | 0 mm | - | 435 W/m² | - |
* Rain latest hour (hover to see other rain measurements)
** Current wind speed in m/s (hover to see current wind gust speed)